Probability
10 13 17 18 16 16 18 17 14 9 7 5 4 4 2 2 4 5 4 4 5 7 7 8 9 9 7 6 6 6 4 1 0 0 0 0 0 0 0 0 0 0 0
11 13 17 17 15 15 16 16 14 10 7 5 5 4 2 2 4 4 4 3 5 7 7 8 8 8 8 8 8 6 3 1 0 0 0 0 0 0 0 0 0 0 0
11 12 14 15 14 13 14 14 13 11 9 6 5 5 3 2 4 4 4 3 4 6 7 7 7 9 10 10 9 6 3 1 0 0 0 0 0 0 0 0 0 0 0
10 10 11 13 14 13 12 12 11 11 10 8 6 5 4 4 4 4 4 4 5 7 7 7 7 9 11 11 9 7 4 2 0 0 0 0 0 0 0 1 1 1 0
9 9 10 13 14 14 14 12 11 10 10 10 8 7 7 7 5 4 4 6 8 9 9 8 8 9 10 11 10 7 6 4 2 0 0 0 0 0 0 1 2 1 0
9 9 11 14 15 17 17 16 14 12 11 11 10 10 10 9 7 6 6 8 10 11 11 9 9 9 10 10 9 8 7 6 3 1 0 0 0 0 0 1 2 2 1
10 10 11 15 17 19 19 18 17 14 12 11 11 11 12 11 10 9 10 10 11 11 11 11 10 10 8 8 8 9 7 5 2 1 0 0 0 1 2 2 2 2 2
14 12 11 14 17 19 18 17 17 16 13 12 12 12 12 11 11 11 11 12 12 11 11 11 11 9 7 7 7 8 6 3 1 0 0 0 1 2 3 2 2 2 2
18 15 12 13 14 16 16 15 16 17 16 15 14 13 13 11 10 11 10 10 12 12 11 11 10 8 7 6 7 7 5 2 0 0 0 1 2 3 3 2 1 1 2
18 16 13 13 12 13 13 12 13 16 17 17 15 13 12 10 9 9 9 9 10 11 10 9 9 8 6 6 6 6 4 1 0 0 0 1 2 3 3 2 1 1 2
15 15 14 13 13 12 11 9 10 13 15 15 13 11 10 9 7 6 6 7 8 8 7 7 8 7 6 6 6 5 3 1 0 0 0 1 3 4 3 2 1 1 1
14 14 15 14 13 13 12 10 9 10 11 12 11 10 10 8 6 3 3 5 6 5 4 4 5 6 6 6 6 5 3 1 1 0 0 1 4 5 4 3 1 1 2
14 14 14 14 14 14 12 10 10 10 10 10 10 10 9 7 4 3 2 3 4 3 2 2 3 4 5 6 6 5 4 3 2 1 0 2 5 6 6 5 2 1 1
13 13 13 12 14 14 13 10 9 10 10 8 7 9 8 6 4 3 3 3 3 2 1 1 3 4 4 5 6 6 4 3 2 1 0 1 4 7 8 6 3 1 1
11 11 10 10 12 14 13 10 9 9 8 6 5 7 6 4 3 3 3 3 3 1 0 0 2 3 3 4 5 5 3 2 1 0 0 1 3 5 7 7 4 2 2
9 9 10 9 11 14 13 11 9 9 8 5 4 5 4 3 2 2 3 2 1 0 0 0 1 2 2 3 4 3 2 1 0 0 0 0 1 3 6 6 3 2 2
8 9 10 10 11 13 13 12 11 10 8 5 4 3 2 1 1 1 2 1 1 0 0 0 0 1 1 2 2 2 1 0 0 0 0 0 0 1 3 4 3 2 2
7 8 9 10 10 11 12 12 12 10 7 5 4 3 1 0 0 0 0 1 1 1 0 0 0 0 1 1 2 1 1 0 0 0 0 0 0 0 1 1 2 3 3
7 7 9 9 9 9 10 11 10 8 6 4 3 2 1 0 0 0 0 0 1 1 0 0 0 0 0 1 1 0 0 0 0 0 0 0 0 0 0 0 1 2 3
6 7 8 9 8 7 7 7 6 6 4 3 3 2 1 0 0 0 0 0 0 0 0 0 0 0 0 0 0 0 0 0 0 0 0 0 0 0 0 0 0 1 1
6 6 7 8 8 6 5 4 4 5 4 3 1 1 0 0 0 0 0 0 0 0 0 0 0 0 0 0 0 0 0 0 0 0 0 0 0 0 0 0 0 0 0
6 6 7 8 7 5 4 3 4 5 5 3 1 0 0 0 0 0 0 0 0 0 0 0 0 0 0 0 0 0 0 0 0 0 0 0 0 0 0 0 0 0 0
6 6 7 7 6 4 3 3 3 4 5 4 2 0 0 0 0 0 0 0 0 0 0 0 0 0 0 0 0 0 0 0 0 0 0 0 0 0 0 0 0 0 0
6 6 6 6 4 3 3 3 3 4 5 5 3 1 0 0 0 0 0 0 0 0 0 0 0 1 1 0 0 0 0 0 0 0 0 0 0 0 0 0 0 0 0
6 6 5 4 3 3 4 3 3 3 4 4 3 2 1 0 0 0 0 0 0 0 0 0 1 1 1 0 0 0 0 0 0 0 0 0 0 0 0 0 0 0 0
6 6 5 4 3 4 4 4 3 3 3 3 3 3 2 1 0 0 0 0 0 0 0 0 1 2 1 0 0 0 0 0 0 0 0 0 0 0 0 0 0 0 0
Wind_Speed
5 6 7 6 6 6 5 5 5 4 4 5 5 5 6 6 7 7 7 8 7 7 8 8 8 8 9 9 9 9 9 10 10 10 10 10 10 9 8 8 8 6 10
5 7 7 6 6 5 5 6 5 5 4 4 4 5 5 5 6 6 6 7 7 7 7 7 8 8 8 8 9 9 8 8 8 8 8 8 9 9 9 8 8 6 9
6 7 6 6 5 5 5 6 5 5 4 4 4 4 5 5 5 6 6 6 6 6 6 7 7 7 8 8 8 7 7 7 6 6 5 3 5 8 8 8 8 8 8
6 6 5 5 5 4 4 5 5 4 4 3 3 3 4 5 5 5 5 5 6 6 6 6 7 7 7 7 7 6 6 5 4 3 2 3 4 7 7 7 8 8 7
5 5 5 5 4 4 3 3 4 3 3 3 3 3 4 4 4 4 5 5 5 5 6 6 6 6 6 6 6 5 4 3 3 2 2 3 3 6 6 6 6 6 6
4 5 5 4 3 3 3 2 2 2 2 2 2 2 3 4 4 4 4 5 5 5 5 5 5 5 6 5 5 4 3 2 2 1 2 3 3 6 6 6 6 6 5
4 4 4 3 3 2 2 1 1 1 1 2 2 2 2 4 4 4 4 5 5 5 5 5 5 5 5 5 4 3 2 1 0 1 2 2 4 6 5 5 5 5 5
4 4 4 3 2 2 1 1 0 0 1 1 2 2 2 3 4 4 4 4 4 5 5 4 5 5 4 4 4 2 1 1 1 1 1 2 5 6 5 4 5 4 4
3 3 3 2 2 2 1 1 1 1 2 2 2 1 1 2 3 4 4 4 4 4 4 4 5 5 5 4 3 1 0 1 1 0 2 2 4 5 4 4 3 3 3
3 2 1 1 1 1 0 1 1 2 2 2 1 1 1 1 2 3 3 3 3 4 4 5 5 4 4 4 3 2 1 1 1 1 1 2 4 4 4 3 3 2 2
2 1 0 1 0 0 1 0 0 2 2 3 2 2 2 2 2 2 3 3 3 3 3 5 5 4 3 3 3 2 1 1 1 1 1 3 4 4 3 3 2 1 1
1 1 0 0 0 0 1 0 1 1 2 3 3 3 2 2 2 2 2 3 3 3 3 4 4 5 3 2 3 3 1 2 1 1 1 3 3 3 3 2 2 1 1
1 1 1 1 0 0 0 0 0 0 1 2 3 3 2 2 2 2 2 2 2 3 2 3 3 3 2 2 2 2 2 1 1 1 2 3 3 3 3 3 3 2 2
1 1 2 1 1 0 0 1 1 1 1 1 2 2 2 2 2 2 2 2 2 2 2 2 2 2 2 3 3 3 2 1 1 1 2 4 3 4 4 3 3 4 3
1 1 2 1 1 1 1 1 1 1 1 2 2 2 2 2 2 2 2 2 1 1 2 2 2 2 2 2 2 2 2 2 2 1 2 4 4 4 5 4 5 5 4
2 1 1 2 2 1 1 1 1 1 1 2 2 2 2 2 2 2 2 2 2 2 1 2 2 2 2 2 2 2 2 2 2 2 2 3 5 5 6 6 6 6 6
2 1 1 2 2 2 1 1 1 1 1 1 1 2 2 2 2 2 2 2 2 1 1 1 1 2 2 2 2 2 2 2 2 3 3 2 3 5 6 6 7 7 6
2 1 1 2 2 2 2 1 1 1 1 1 1 1 2 2 3 2 2 2 2 1 1 1 1 1 2 2 1 2 2 2 3 3 2 2 3 3 4 6 7 7 7
2 2 1 1 1 2 2 1 1 1 1 1 1 1 2 2 3 2 2 2 2 1 1 1 1 1 2 2 1 1 1 2 2 3 3 3 3 3 3 5 6 7 7
2 2 1 1 1 1 1 1 1 1 1 1 2 2 2 2 2 2 2 2 2 2 1 1 1 1 1 2 1 1 2 2 2 3 3 3 3 3 3 3 4 5 7
2 2 1 1 1 1 1 1 1 1 1 2 1 1 2 2 2 2 2 2 2 2 2 2 2 1 1 1 1 1 2 2 3 3 3 2 3 4 3 4 3 3 3
2 2 1 1 1 1 1 1 1 2 2 2 1 1 1 2 2 2 3 2 2 2 2 3 2 2 2 2 2 1 1 2 2 3 3 3 4 3 3 4 4 4 3
2 2 2 1 1 1 1 1 1 1 1 1 1 1 1 2 2 2 2 2 2 3 3 3 3 3 3 3 2 2 2 3 2 2 3 3 3 3 4 3 4 4 4
2 2 2 1 1 1 1 1 1 2 2 2 1 1 1 1 1 2 1 2 2 2 3 3 3 3 3 3 2 2 2 2 1 2 2 2 3 4 4 4 4 4 4
1 1 1 1 1 1 1 1 1 2 1 1 1 1 1 1 1 1 1 1 2 2 3 3 3 3 3 3 2 2 2 2 2 2 3 3 2 3 3 3 3 3 3
2 0 1 1 1 1 1 1 1 2 1 1 1 1 0 1 1 1 1 1 1 2 3 3 3 4 3 3 3 2 2 2 3 2 3 4 3 3 3 3 3 3 3
Wind_Direction
86 101 86 70 66 60 56 58 71 87 93 99 98 105 112 111 107 103 102 102 102 104 109 107 104 101 97 91 86 91 93 91 88 88 86 85 86 87 86 85 84 77 78
93 105 88 71 66 62 58 56 66 74 81 89 99 103 116 118 118 115 112 107 106 106 110 112 110 107 101 94 91 93 96 97 97 94 88 86 88 88 85 83 84 82 80
92 106 99 72 63 61 59 53 61 71 77 81 92 102 119 123 124 122 120 117 114 110 111 111 110 109 106 101 98 98 97 97 95 92 88 94 94 91 87 85 86 86 80
92 102 106 81 68 58 59 56 55 72 73 76 89 98 119 122 124 127 127 125 120 114 115 115 112 110 109 107 105 105 100 93 85 79 92 94 95 94 90 87 89 87 81
88 94 103 89 78 66 61 66 55 68 81 77 85 98 116 128 129 129 128 126 122 118 117 116 116 116 114 112 111 113 110 88 61 70 84 87 88 96 94 89 92 90 84
87 92 106 98 91 80 65 64 56 60 98 93 93 97 120 132 137 132 130 131 124 120 119 122 120 119 118 116 115 119 112 77 46 87 88 98 103 101 99 93 93 92 87
84 94 114 95 94 85 73 52 52 51 121 120 108 103 122 136 135 132 127 137 137 133 127 125 132 129 128 125 118 115 105 33 73 65 70 92 102 106 109 102 99 96 88
71 90 110 81 67 67 67 39 348 0 185 144 134 113 130 144 149 141 134 133 137 145 142 137 139 143 144 133 126 119 75 336 64 85 79 95 109 108 113 111 103 101 92
63 86 107 114 83 34 5 329 283 268 216 175 154 146 148 159 158 156 151 146 134 140 151 150 146 152 152 145 142 152 301 309 299 185 106 97 113 120 121 112 111 107 95
53 71 109 124 129 164 232 302 291 265 223 186 174 161 168 166 169 164 153 152 143 141 158 161 154 156 160 162 179 217 259 294 225 153 121 124 127 135 135 122 115 123 117
30 57 101 114 84 359 300 5 316 278 219 184 174 155 163 168 163 163 164 163 161 154 158 160 163 166 168 178 193 224 237 196 184 158 125 133 145 157 157 148 137 126 134
349 348 30 186 161 259 312 30 221 253 207 191 177 176 178 153 154 151 158 164 169 171 170 171 172 180 186 185 201 213 209 198 190 154 135 144 162 178 183 182 188 191 192
300 338 336 343 306 235 320 274 276 274 236 199 187 187 164 145 151 148 143 158 168 181 175 183 190 195 192 187 196 207 216 212 185 156 149 160 178 198 203 205 216 225 231
298 302 330 344 321 311 294 276 268 250 249 212 200 179 168 159 162 163 164 180 183 189 189 194 193 192 195 200 195 201 205 215 191 165 162 168 187 207 220 224 228 233 238
299 313 325 309 283 282 265 260 274 244 254 220 196 196 178 168 169 171 169 174 182 196 198 200 198 190 198 200 200 201 203 211 215 196 176 184 194 212 227 235 236 239 243
278 261 300 301 282 275 271 266 263 264 269 239 201 202 193 176 172 170 171 175 183 192 205 229 209 186 192 191 194 207 216 218 219 212 193 193 199 209 223 235 243 248 247
271 275 277 296 301 297 291 281 289 262 250 244 210 199 192 186 177 173 173 173 181 190 205 233 235 190 181 185 193 208 212 219 220 219 207 196 201 212 222 232 240 249 247
281 279 274 304 312 303 306 300 300 282 276 252 216 203 194 197 179 164 167 170 174 180 192 209 209 210 187 182 195 222 219 219 220 222 215 208 201 208 222 232 239 244 245
304 282 249 256 295 297 307 297 301 291 283 271 224 208 196 181 177 162 170 173 165 170 188 229 217 209 197 193 204 223 234 233 230 232 226 221 212 204 210 221 235 240 241
303 290 263 239 261 294 289 322 326 306 291 275 236 206 186 173 176 158 167 180 169 163 181 198 216 221 218 193 217 251 256 252 241 229 230 230 221 211 211 215 220 232 235
306 308 284 257 271 303 271 244 254 263 278 277 256 207 181 182 178 180 182 188 184 183 192 190 197 184 229 190 191 268 279 251 240 231 222 221 228 221 213 217 216 211 220
310 310 291 256 261 265 260 257 249 252 252 255 256 206 184 184 194 205 188 189 194 189 195 201 194 197 226 214 195 220 284 282 252 243 226 221 227 229 226 220 215 210 203
312 308 299 278 264 250 254 254 308 291 278 274 262 200 199 204 197 195 205 193 198 195 199 210 206 205 216 238 209 184 195 233 276 248 236 228 225 225 233 218 213 215 208
313 310 292 273 268 240 212 227 223 251 259 280 260 231 205 209 210 196 198 208 203 208 208 221 222 217 215 226 242 235 231 205 214 284 272 241 231 230 223 216 214 217 208
326 306 286 277 259 224 198 222 232 259 273 298 280 224 214 222 206 191 214 209 205 213 217 228 233 219 224 229 236 243 247 250 237 220 257 256 257 244 227 218 209 211 208
347 292 249 283 291 243 219 239 228 267 282 283 273 228 219 244 220 187 244 229 212 221 225 224 234 224 228 233 240 240 227 221 222 223 240 249 256 256 240 229 218 210 210